KK4OHF Weather Reports


time (UTC)temp
F
wind
direction
speed
knots
gust
knots
rain 1hr
in
rain 24hr
in
rain mn
in
humidity
%
barometer
mb
20260906225504 93 131 0.0 0.9 0.00 0.00 0.00 63 1009.4
20260906225006 93 131 0.0 0.0 0.00 0.00 0.00 61 1009.4
20260906224504 93 131 0.0 0.9 0.00 0.00 0.00 62 1009.5
20260906224006 93 131 0.0 0.9 0.00 0.00 0.00 61 1009.5
20260906223504 93 131 0.0 0.9 0.00 0.00 0.00 60 1009.5
20260906223006 94 131 0.9 2.6 0.00 0.00 0.00 56 1009.4
20260906222505 94 139 0.9 2.6 0.00 0.00 0.00 55 1009.4
20260906222005 94 139 0.9 1.7 0.00 0.00 0.00 54 1009.4
20260906221504 94 139 0.0 0.9 0.00 0.00 0.00 55 1009.4
20260906221006 94 139 0.0 0.0 0.00 0.00 0.00 53 1009.2
20260906220505 94 139 0.0 0.9 0.00 0.00 0.00 51 1009.2
20260906220005 94 139 0.9 1.7 0.00 0.00 0.00 49 1009.2
20260906215505 95 17 0.0 0.9 0.00 0.00 0.00 48 1009.2
20260906215005 95 17 0.0 0.9 0.00 0.00 0.00 46 1009.4
20260906214505 95 17 0.9 1.7 0.00 0.00 0.00 44 1009.4
20260906214005 95 17 0.9 1.7 0.00 0.00 0.00 45 1009.3
20260906213005 95 352 0.9 2.6 0.00 0.00 0.00 44 1008.9
20260906212505 96 346 1.7 4.3 0.00 0.00 0.00 44 1008.9
20260906212004 96 241 1.7 5.2 0.00 0.00 0.00 44 1008.8
20260906211505 96 287 0.9 1.7 0.00 0.00 0.00 46 1008.8
20260906211005 96 281 0.9 1.7 0.00 0.00 0.00 45 1008.8
20260906210505 96 200 0.9 2.6 0.00 0.00 0.00 47 1008.8
20260906205506 96 29 0.9 4.3 0.00 0.00 0.00 45 1009.1
20260906205006 96 12 2.6 4.3 0.00 0.00 0.00 45 1009.1
20260906204505 96 263 1.7 2.6 0.00 0.00 0.00 43 1009.1
20260906204005 96 346 0.9 4.3 0.00 0.00 0.00 42 1009.1
20260906203505 95 252 2.6 5.2 0.00 0.00 0.00 43 1009.1
20260906203004 95 17 1.7 2.6 0.00 0.00 0.00 44 1009.4
20260906202504 95 15 1.7 2.6 0.00 0.00 0.00 45 1009.4
20260906201004 96 5 1.7 2.6 0.00 0.00 0.00 48 1010.1
20260906195504 98 16 2.6 4.3 0.00 0.00 0.00 45 1010.3
20260906194506 97 272 1.7 4.3 0.00 0.00 0.00 46 1010.4
20260906194005 96 88 0.9 5.2 0.00 0.00 0.00 45 1010.4
20260906193505 97 291 0.9 5.2 0.00 0.00 0.00 45 1010.4
20260906193005 96 259 1.7 4.3 0.00 0.00 0.00 45 1011.0
20260906192506 96 300 0.9 2.6 0.00 0.00 0.00 47 1011.0
20260906192005 96 355 0.9 2.6 0.00 0.00 0.00 46 1011.0
20260906191505 96 315 1.7 2.6 0.00 0.00 0.00 46 1011.0
20260906191005 95 38 1.7 4.3 0.00 0.00 0.00 47 1011.0
20260906190505 95 338 4.3 7.8 0.00 0.00 0.00 47 1011.0
20260906190004 95 280 0.9 7.8 0.00 0.00 0.00 47 1011.0
20260906185505 95 283 6.1 8.7 0.00 0.00 0.00 45 1011.0
20260906185004 96 0 0.9 2.6 0.00 0.00 0.00 48 1011.3
20260906184005 95 0 1.7 2.6 0.00 0.00 0.00 51 1011.3
20260906183506 94 7 0.9 2.6 0.00 0.00 0.00 49 1011.3
20260906183005 95 5 1.7 2.6 0.00 0.00 0.00 48 1011.5
20260906182504 95 63 0.9 2.6 0.00 0.00 0.00 50 1011.5
20260906181506 96 319 0.9 2.6 0.00 0.00 0.00 49 1011.7
20260906181005 96 305 0.9 2.6 0.00 0.00 0.00 48 1011.7
20260906180505 94 203 0.9 2.6 0.00 0.00 0.00 49 1011.7
20260906180005 95 320 1.7 2.6 0.00 0.00 0.00 49 1012.0
20260906175505 95 28 1.7 5.2 0.00 0.00 0.00 50 1012.0
20260906174505 94 6 1.7 2.6 0.00 0.00 0.00 52 1012.1
20260906174005 93 320 1.7 4.3 0.00 0.00 0.00 51 1012.1
20260906173505 94 7 2.6 4.3 0.00 0.00 0.00 48 1012.1
20260906173005 94 8 0.9 2.6 0.00 0.00 0.00 50 1012.1
20260906172505 93 349 1.7 4.3 0.00 0.00 0.00 49 1012.1
20260906172004 93 323 0.9 2.6 0.00 0.00 0.00 49 1012.3
20260906171505 93 309 1.7 2.6 0.00 0.00 0.00 47 1012.3
20260906171005 93 349 2.6 7.0 0.00 0.00 0.00 49 1012.4
20260906170505 92 358 0.9 2.6 0.00 0.00 0.00 52 1012.4
20260906170006 92 343 1.7 4.3 0.00 0.00 0.00 52 1012.5
20260906165504 92 346 2.6 4.3 0.00 0.00 0.00 53 1012.5
20260906165006 92 347 1.7 4.3 0.00 0.00 0.00 54 1012.5
20260906164506 91 28 2.6 4.3 0.00 0.00 0.00 55 1012.6
20260906164005 91 311 1.7 4.3 0.00 0.00 0.00 57 1012.7
20260906163505 90 20 1.7 2.6 0.00 0.00 0.00 57 1012.7
20260906163005 90 9 3.5 7.0 0.00 0.00 0.00 56 1012.7
20260906162505 90 24 2.6 4.3 0.00 0.00 0.00 59 1012.7
20260906161505 90 6 0.9 4.3 0.00 0.00 0.00 60 1012.8
20260906160505 90 39 1.7 2.6 0.00 0.00 0.00 59 1012.8
20260906160006 89 338 1.7 4.3 0.00 0.00 0.00 61 1012.9
20260906155504 90 29 2.6 6.1 0.00 0.00 0.00 58 1012.9
20260906155005 90 19 1.7 4.3 0.00 0.00 0.00 63 1013.1
20260906154505 89 13 1.7 4.3 0.00 0.00 0.00 62 1013.0
20260906154006 88 351 2.6 7.0 0.00 0.00 0.00 63 1013.0
20260906153505 89 2 2.6 6.1 0.00 0.00 0.00 60 1013.0
20260906153005 89 320 0.9 2.6 0.00 0.00 0.00 64 1013.0
20260906152506 88 7 1.7 4.3 0.00 0.00 0.00 63 1013.0
20260906152005 88 310 1.7 4.3 0.00 0.00 0.00 65 1012.8
20260906151505 88 3 1.7 4.3 0.00 0.00 0.00 66 1012.8
20260906151005 87 328 1.7 2.6 0.00 0.00 0.00 67 1012.8
20260906150504 87 21 1.7 2.6 0.00 0.00 0.00 66 1012.8
20260906150004 87 10 0.9 2.6 0.00 0.00 0.00 67 1012.7
20260906145506 86 357 1.7 2.6 0.00 0.00 0.00 67 1012.7
20260906145005 87 9 1.7 2.6 0.00 0.00 0.00 66 1012.7
20260906144505 87 2 2.6 2.6 0.00 0.00 0.00 66 1012.7
20260906144005 87 32 0.9 2.6 0.00 0.00 0.00 68 1012.7
20260906143505 86 35 0.9 2.6 0.00 0.00 0.00 69 1012.7
20260906143005 86 16 0.9 2.6 0.00 0.00 0.00 70 1012.9
20260906142505 85 15 0.0 2.6 0.00 0.00 0.00 70 1012.9
20260906142006 85 6 1.7 2.6 0.00 0.00 0.00 69 1012.9
20260906141005 85 11 1.7 2.6 0.00 0.00 0.00 69 1013.0
20260906140505 85 315 0.9 1.7 0.00 0.00 0.00 71 1013.0
20260906140004 83 22 0.9 1.7 0.00 0.00 0.00 75 1013.1
20260906135505 83 22 0.0 0.9 0.00 0.00 0.00 78 1013.1
20260906135006 82 22 0.0 0.9 0.00 0.00 0.00 79 1013.1
20260906134506 80 22 0.0 0.9 0.00 0.00 0.00 82 1013.1
20260906134004 79 22 0.0 0.9 0.00 0.00 0.00 85 1013.1
20260906133505 77 22 0.0 1.7 0.00 0.00 0.00 89 1013.1
20260906133005 76 253 0.0 2.6 0.00 0.00 0.00 89 1013.1
20260906132505 75 253 0.0 2.6 0.00 0.00 0.00 89 1013.1
20260906132005 75 253 0.9 2.6 0.00 0.00 0.00 89 1013.1
20260906131505 74 261 0.9 2.6 0.00 0.00 0.00 89 1013.1
20260906131005 74 255 0.9 1.7 0.00 0.00 0.00 89 1013.1
20260906130505 74 239 0.9 1.7 0.00 0.00 0.00 89 1013.1
20260906130005 74 239 0.9 2.6 0.00 0.00 0.00 89 1012.9
20260906125506 73 235 0.9 2.6 0.00 0.00 0.00 89 1012.9
20260906125005 73 269 0.9 1.7 0.00 0.00 0.00 89 1012.9
20260906124006 73 259 0.9 1.7 0.00 0.00 0.00 89 1012.9
20260906123504 73 257 0.9 1.7 0.00 0.00 0.00 89 1012.9
20260906123005 72 297 0.9 1.7 0.00 0.00 0.00 89 1012.9
20260906122506 72 297 0.0 0.9 0.00 0.00 0.00 90 1012.9
20260906122005 72 297 0.0 0.0 0.00 0.00 0.00 90 1012.9
20260906121505 72 297 0.0 0.9 0.00 0.00 0.00 90 1012.8
20260906121005 72 297 0.0 0.0 0.00 0.00 0.00 90 1012.5
20260906120505 72 297 0.0 1.7 0.00 0.00 0.00 90 1012.5
20260906120004 72 297 0.9 1.7 0.00 0.00 0.00 90 1012.5
20260906115506 72 297 0.0 0.9 0.00 0.00 0.00 90 1012.5
20260906115005 72 297 0.0 0.9 0.00 0.00 0.00 90 1012.5
20260906114005 72 297 0.0 0.9 0.00 0.00 0.00 90 1012.5
20260906113505 72 297 0.0 0.9 0.00 0.00 0.00 90 1012.5
20260906113006 72 297 0.0 0.9 0.00 0.00 0.00 90 1012.5
20260906112505 72 355 0.0 0.9 0.00 0.00 0.00 90 1012.5
20260906111505 72 355 0.0 0.9 0.00 0.00 0.00 90 1012.3
20260906111005 72 355 0.0 0.9 0.00 0.00 0.00 90 1012.3
20260906110504 72 355 0.0 0.0 0.00 0.00 0.00 90 1012.3
20260906110005 72 355 0.0 0.0 0.00 0.00 0.00 90 1012.5
20260906105505 72 355 0.0 0.0 0.00 0.00 0.00 90 1012.5
20260906105005 72 355 0.0 0.0 0.00 0.00 0.00 90 1012.5
20260906104005 72 355 0.0 0.0 0.00 0.00 0.00 90 1012.4
20260906103506 72 355 0.0 0.0 0.00 0.00 0.00 90 1012.4
20260906102505 72 355 0.0 0.0 0.00 0.00 0.00 90 1012.3
20260906101005 72 355 0.0 0.9 0.00 0.00 0.00 90 1012.3
20260906100506 72 355 0.0 0.0 0.00 0.00 0.00 90 1012.3
20260906100005 72 355 0.0 0.9 0.00 0.00 0.00 90 1012.4
20260906095505 72 355 0.0 0.0 0.00 0.00 0.00 90 1012.4
20260906095005 72 355 0.0 0.0 0.00 0.00 0.00 89 1012.3
20260906094505 72 355 0.0 0.0 0.00 0.00 0.00 89 1012.3
20260906094005 72 355 0.0 0.0 0.00 0.00 0.00 89 1012.3
20260906093505 72 355 0.0 0.0 0.00 0.00 0.00 89 1012.3
20260906093005 72 355 0.0 0.9 0.00 0.00 0.00 89 1012.1
20260906092505 72 355 0.0 0.0 0.00 0.00 0.00 89 1012.1
20260906092005 72 355 0.9 1.7 0.00 0.00 0.00 89 1012.0
20260906091505 73 355 0.9 1.7 0.00 0.00 0.00 89 1012.0
20260906091006 73 355 0.9 1.7 0.00 0.00 0.00 89 1012.0
20260906090504 73 297 0.9 1.7 0.00 0.00 0.00 89 1012.0
20260906090005 73 280 0.0 0.9 0.00 0.00 0.00 89 1011.7
20260906085504 73 280 0.0 0.0 0.00 0.00 0.00 89 1011.7
20260906085006 73 280 0.0 0.0 0.00 0.00 0.00 89 1011.7
20260906084506 73 280 0.0 0.0 0.00 0.00 0.00 89 1011.7
20260906084005 73 280 0.0 0.0 0.00 0.00 0.00 89 1011.7
20260906083506 73 280 0.0 0.0 0.00 0.00 0.00 89 1011.7
20260906083005 73 280 0.0 0.9 0.00 0.00 0.00 89 1012.0
20260906082505 73 280 0.0 0.0 0.00 0.00 0.00 89 1012.0
20260906082005 73 280 0.0 0.0 0.00 0.00 0.00 89 1012.0
20260906081505 73 280 0.0 0.9 0.00 0.00 0.00 89 1012.0
20260906081006 73 280 0.0 0.9 0.00 0.00 0.00 89 1011.9
20260906080505 73 280 0.0 0.0 0.00 0.00 0.00 89 1011.9
20260906080004 73 280 0.0 0.0 0.00 0.00 0.00 89 1012.0
20260906075505 73 280 0.0 0.0 0.00 0.00 0.00 89 1012.0
20260906075005 73 280 0.0 0.9 0.00 0.00 0.00 89 1012.0
20260906074504 73 280 0.0 0.0 0.00 0.00 0.00 89 1012.0
20260906074005 73 280 0.0 0.9 0.00 0.00 0.00 88 1012.0
20260906073505 73 280 0.0 0.0 0.00 0.00 0.00 88 1012.0
20260906072005 74 280 0.0 0.9 0.00 0.00 0.00 88 1011.9
20260906071005 74 280 0.0 0.0 0.00 0.00 0.00 88 1012.0
20260906070505 74 280 0.0 0.0 0.00 0.00 0.00 88 1012.0
20260906070005 74 280 0.0 0.0 0.00 0.00 0.00 87 1012.0
20260906065005 74 280 0.0 0.0 0.00 0.00 0.00 88 1012.0
20260906064505 74 280 0.0 0.0 0.00 0.00 0.00 88 1012.0
20260906064005 74 280 0.0 0.0 0.00 0.00 0.00 87 1012.1
20260906063505 74 280 0.0 0.0 0.00 0.00 0.00 87 1012.1
20260906062505 74 280 0.0 0.9 0.00 0.00 0.00 87 1012.1
20260906062005 74 280 0.9 1.7 0.00 0.00 0.00 87 1012.1
20260906061505 75 280 0.9 1.7 0.00 0.00 0.00 87 1012.1
20260906060505 75 280 0.0 0.9 0.00 0.00 0.00 87 1012.1
20260906060005 75 280 0.0 0.9 0.00 0.00 0.00 87 1012.2
20260906055005 75 271 0.9 1.7 0.00 0.00 0.00 86 1012.1
20260906054005 75 250 0.0 0.9 0.00 0.00 0.00 86 1012.5
20260906053005 75 250 0.0 0.9 0.00 0.00 0.00 86 1012.6
20260906052505 75 250 0.0 0.9 0.00 0.00 0.00 86 1012.6
20260906052005 76 250 0.0 0.9 0.00 0.00 0.00 86 1012.6
20260906051506 76 250 0.9 2.6 0.00 0.00 0.00 85 1012.6
20260906051005 76 283 0.9 2.6 0.00 0.00 0.00 85 1012.6
20260906050505 76 128 0.0 0.9 0.00 0.00 0.00 85 1012.6
20260906045504 76 128 0.0 1.7 0.00 0.00 0.00 84 1012.6
20260906045005 76 128 0.0 0.0 0.00 0.00 0.00 84 1012.7
20260906044005 76 128 0.0 0.9 0.00 0.00 0.00 84 1012.7
20260906043505 77 128 0.0 0.0 0.00 0.00 0.00 83 1012.7
20260906043005 77 128 0.0 1.7 0.00 0.00 0.00 83 1012.7
20260906042004 77 128 0.0 0.9 0.00 0.00 0.00 83 1012.7
20260906041505 77 128 0.0 0.0 0.00 0.00 0.00 82 1012.7
20260906041006 77 128 0.0 0.0 0.00 0.00 0.00 82 1012.8
20260906040506 77 128 0.0 0.0 0.00 0.00 0.00 81 1012.8
20260906040005 78 128 0.0 0.0 0.00 0.00 0.00 81 1013.0
20260906035505 78 128 0.0 0.0 0.00 0.00 0.00 81 1013.0
20260906034505 78 128 0.0 0.0 0.00 0.00 0.00 80 1013.0
20260906034005 78 128 0.0 0.0 0.00 0.00 0.00 80 1012.8
20260906033505 78 128 0.0 0.9 0.00 0.00 0.00 80 1012.8
20260906033005 78 128 0.0 0.0 0.00 0.00 0.00 79 1013.1
20260906032505 79 128 0.0 0.9 0.00 0.00 0.00 79 1013.1
20260906032006 79 128 0.0 0.0 0.00 0.00 0.00 78 1013.1
20260906031505 79 128 0.0 0.0 0.00 0.00 0.00 77 1013.1
20260906031005 79 128 0.0 0.9 0.00 0.00 0.00 77 1013.5
20260906030505 79 128 0.0 0.9 0.00 0.00 0.00 77 1013.5
20260906030006 79 128 0.0 0.0 0.00 0.00 0.00 77 1013.5
20260906025504 80 128 0.0 0.9 0.00 0.00 0.00 77 1013.5
20260906025005 80 128 0.0 0.0 0.00 0.00 0.00 76 1013.2
20260906024505 80 128 0.0 0.0 0.00 0.00 0.00 76 1013.2
20260906024006 80 128 0.9 1.7 0.00 0.00 0.00 76 1013.3
20260906023505 80 128 0.0 0.0 0.00 0.00 0.00 75 1013.3
20260906023005 80 128 0.0 1.7 0.00 0.00 0.00 75 1013.2
20260906022505 80 128 0.9 1.7 0.00 0.00 0.00 74 1013.2
20260906022005 80 128 0.0 0.9 0.00 0.00 0.00 74 1013.2
20260906021505 80 128 0.0 0.9 0.00 0.00 0.00 74 1013.3
20260906021006 80 128 0.0 0.9 0.00 0.00 0.00 74 1013.3
20260906020505 81 128 0.0 1.7 0.00 0.00 0.00 73 1013.3
20260906020005 81 91 0.0 1.7 0.00 0.00 0.00 73 1013.4
20260906015506 81 111 0.9 2.6 0.00 0.00 0.00 73 1013.4
20260906015004 81 121 0.0 1.7 0.00 0.00 0.00 73 1012.9
20260906014504 81 153 0.0 0.9 0.00 0.00 0.00 72 1012.9
20260906014006 81 153 0.0 0.9 0.00 0.00 0.00 73 1012.9
20260906013505 81 153 0.0 0.0 0.00 0.00 0.00 73 1012.9
20260906013005 82 153 0.0 0.9 0.00 0.00 0.00 72 1012.9
20260906012505 82 153 0.0 0.0 0.00 0.00 0.00 72 1012.9
20260906012005 82 153 0.0 0.0 0.00 0.00 0.00 72 1012.6
20260906011506 82 153 0.0 0.0 0.00 0.00 0.00 71 1012.6
20260906011005 82 153 0.0 0.9 0.00 0.00 0.00 71 1012.6
20260906010506 82 153 0.9 2.6 0.00 0.00 0.00 71 1012.6
20260906005504 83 197 0.9 1.7 0.00 0.00 0.00 69 1011.5
20260906005004 83 197 0.0 1.7 0.00 0.00 0.00 69 1011.5
20260906004505 83 197 0.0 0.9 0.00 0.00 0.00 68 1011.5
20260906004005 83 197 0.0 0.0 0.00 0.00 0.00 68 1011.5
20260906003505 83 197 0.0 1.7 0.00 0.00 0.00 68 1011.5
20260906002505 84 197 0.0 0.9 0.00 0.00 0.00 67 1011.3
20260906002005 84 197 0.0 0.9 0.00 0.00 0.00 66 1011.3
20260906001006 85 197 0.9 1.7 0.00 0.00 0.00 64 1011.6
20260906000504 85 197 0.0 1.7 0.00 0.00 0.00 64 1011.6
20260906000005 85 189 0.0 1.7 0.00 0.00 0.00 63 1011.1
20260905235504 85 119 0.0 1.7 0.00 0.00 0.00 62 1011.1
20260905235005 86 119 0.9 2.6 0.00 0.00 0.00 62 1011.1
20260905234505 86 25 2.6 5.2 0.00 0.00 0.00 61 1011.0
20260905234005 87 21 1.7 6.1 0.00 0.00 0.00 60 1011.0
20260905233506 88 15 1.7 2.6 0.00 0.00 0.00 59 1011.0
20260905233005 89 356 1.7 4.3 0.00 0.00 0.00 58 1010.9
20260905232505 89 3 2.6 6.1 0.00 0.00 0.00 57 1010.9
20260905232005 90 26 2.6 6.1 0.00 0.00 0.00 57 1010.9
20260905231006 93 12 2.6 4.3 0.00 0.00 0.00 60 1010.8
20260905230506 94 17 1.7 2.6 0.00 0.00 0.00 62 1010.8
20260905230005 95 119 0.0 1.7 0.00 0.00 0.00 62 1010.8